Regional Weather Roundup
Issued by NWS

Home | Current Version | Previous Version | Graphics & Text | Print | Product List | Glossary On
Versions: 1 2 3 4 5 6 7 8 9 10 11 12 13 14 15 16 17 18 19 20 21 22 23 24 25 26 27 28 29 30 31 32 33 34 35 36 37 38 39 40 41 42 43 44 45 46 47 48 49 50
000
ASUS43 KBIS 280102
RWRND

NORTH DAKOTA REGIONAL WEATHER ROUNDUP
NATIONAL WEATHER SERVICE BISMARCK ND
800 PM CDT THU JUL 27 2017

NOTE: "FAIR" INDICATES FEW OR NO CLOUDS BELOW 12,000 FEET WITH NO
SIGNIFICANT WEATHER AND/OR OBSTRUCTIONS TO VISIBILITY.


NDZ001>003-009>011-017-280200-
NORTHWEST NORTH DAKOTA

CITY           SKY/WX    TMP DP  RH WIND       PRES   REMARKS
WILLISTON      CLOUDY    77  63  61 S5        30.01F
MINOT          MOSUNNY   81  58  45 SE10      30.02F
MINOT AFB      MOSUNNY   80  59  48 SE9       30.01F
$$

NDZ018>021-031>035-040>046-280200-
SOUTHWEST NORTH DAKOTA

CITY           SKY/WX    TMP DP  RH WIND       PRES   REMARKS
BISMARCK       CLOUDY    81  60  48 SE8       30.02F
DICKINSON      CLOUDY    71  60  68 SW6       30.02F
GARRISON         N/A     74  61  63 E10       30.02F
HETTINGER ARPT CLOUDY    75  54  47 S13       30.04F
$$

NDZ004>008-012>016-024-026-027-054-280200-
NORTHEAST NORTH DAKOTA

CITY           SKY/WX    TMP DP  RH WIND       PRES   REMARKS
GRAND FORKS    PTCLDY    81  62  52 S3        30.04F
GRND FRKS AFB  SUNNY     80  58  46 CALM      30.06F
DEVILS LAKE    SUNNY     78  57  48 S7        30.07F
$$

NDZ022-023-025-028>030-036>039-047>053-280200-
SOUTHEAST NORTH DAKOTA

CITY           SKY/WX    TMP DP  RH WIND       PRES   REMARKS
FARGO          CLEAR     79  59  50 NE7       30.05S
JAMESTOWN      MOSUNNY   77  62  59 E5        30.06F
$$





USA.gov is the U.S. government's official web portal to all federal, state and local government web resources and services.